カタログに戻る

STARLINK-38121

運用中通信SSO
NORAD 100156·PAYLOAD·🇺🇸 United States

打ち上げ Jul 25, 2026 から Vandenberg Space Force Base

Loading…

次のパス (今後24時間)

TLE

最新Source: Space-Track

元期: Sep 14, 2026, 12:56 UTC

1 A0156U 26171J   26257.53893455  .00012685  00000-0  35278-3 0  9993
2 A0156  97.2833 290.0835 0001540  90.0080 270.1341 15.36976122  7984

AllMySatでSTARLINK-38121をリアルタイム追跡

Download on the App Store